Theta_e
360 361 362 362 361 360 361 359 355 357 360 357 355 351 345 348 343 340 341 343 338 342 341 340 349 355 356 365 356 355 357 355 358 361 360 358 362 352 346 347 346 346 346 346 347 348 349 349 349 351 353 353 353 353 352 351 352 352 352 352 353 352 352 350 349 349 350 351 350 350 350 349 349 348
364 362 360 362 360 364 362 361 357 361 364 358 357 355 352 351 346 344 340 343 346 343 346 343 353 360 361 355 358 357 357 355 361 357 357 356 357 348 346 346 346 345 345 344 343 345 346 346 346 346 346 347 349 350 351 350 350 350 350 351 352 352 351 348 348 349 350 350 351 350 350 349 349 347
363 363 361 362 359 362 361 362 357 362 364 362 360 360 360 356 354 351 349 343 350 349 345 345 346 350 361 354 354 355 357 357 358 359 360 361 352 347 355 346 345 344 343 342 341 340 340 340 341 341 342 343 344 346 348 348 348 348 347 349 351 350 350 347 346 347 348 349 349 348 349 349 348 347
363 364 362 364 363 363 364 363 360 359 364 365 362 363 362 362 360 358 354 350 348 353 348 349 352 351 353 355 352 357 356 361 356 365 362 365 354 362 357 351 345 343 341 341 340 338 336 336 338 339 341 342 343 345 345 345 345 345 345 346 346 347 347 344 344 345 346 347 346 346 347 347 347 347
363 365 364 364 365 366 365 364 362 359 361 365 363 362 361 360 363 362 359 354 353 358 359 356 355 356 358 353 358 355 354 357 360 360 366 365 362 361 361 361 350 344 341 339 338 338 336 336 337 338 340 340 342 344 345 344 342 341 341 341 340 341 343 342 341 344 345 345 345 345 346 346 345 345
364 364 365 366 365 366 365 362 361 361 357 359 361 361 361 360 361 364 360 357 356 353 359 356 359 358 360 356 362 360 359 359 365 362 361 361 363 363 365 365 364 348 342 338 336 336 336 336 336 336 338 339 339 340 341 340 338 338 339 337 335 335 335 336 339 341 342 343 344 344 344 344 344 344
365 364 365 364 365 363 363 364 363 361 359 358 358 358 359 360 360 362 363 360 356 355 355 359 357 358 360 358 360 363 362 366 368 365 363 361 361 363 362 361 360 351 343 338 336 335 335 335 335 334 336 337 336 336 335 334 334 335 334 333 334 334 333 333 335 338 339 341 342 344 343 343 343 343
363 363 364 364 362 362 362 364 365 363 361 359 359 359 359 360 358 360 359 362 361 359 356 361 360 362 361 363 364 365 366 362 362 363 365 365 364 364 363 363 363 356 346 341 336 335 334 333 333 332 332 333 331 330 329 329 331 330 330 330 331 331 331 330 331 334 334 335 338 341 342 342 341 338
364 364 363 363 363 363 362 363 364 363 363 362 361 360 363 362 362 362 362 363 363 361 358 358 362 364 363 363 364 365 362 363 365 365 364 362 363 364 362 362 362 351 346 344 341 337 335 334 333 332 332 331 330 329 328 328 328 328 328 328 328 329 329 329 328 329 330 330 332 332 335 338 339 337
364 363 364 363 363 362 361 361 362 365 364 363 363 363 363 363 365 366 366 366 364 362 359 359 357 362 358 361 363 365 365 361 359 360 362 364 364 366 363 361 361 362 361 363 363 348 341 337 332 333 334 332 330 330 329 328 327 326 325 323 323 325 326 327 328 328 327 327 329 331 331 333 334 335
363 363 362 363 363 363 363 362 362 364 365 362 364 366 366 366 365 363 363 363 362 361 359 359 359 358 360 361 359 366 367 365 362 359 358 359 364 367 365 363 363 362 361 357 349 351 351 348 349 337 330 330 330 330 330 328 326 325 323 321 321 321 322 322 324 326 325 326 326 326 326 328 332 334
357 358 360 359 362 363 366 366 365 364 362 365 365 366 367 367 366 365 363 361 360 360 358 357 356 357 360 362 363 364 366 364 363 364 360 357 358 360 366 365 364 365 365 364 361 354 350 348 346 335 334 334 332 331 331 331 332 330 327 324 324 324 321 321 322 323 322 322 322 322 323 323 326 330
359 356 355 355 357 365 373 369 369 369 369 365 365 368 369 368 366 366 364 361 360 359 358 358 360 358 359 360 362 360 362 360 360 363 363 360 360 359 359 365 368 366 362 362 362 361 361 358 363 361 363 365 355 348 335 338 338 334 329 326 326 325 324 322 321 322 321 321 321 320 321 322 324 327
357 357 355 352 365 366 370 368 364 359 362 364 364 365 368 368 367 365 363 361 359 359 357 356 357 355 355 356 360 360 360 362 364 362 362 358 359 361 359 363 368 373 366 361 363 364 364 361 362 362 361 360 364 362 362 355 346 340 332 329 327 326 325 323 322 321 321 320 320 320 319 320 322 323
356 356 358 360 359 370 372 372 357 355 351 351 350 349 353 360 369 366 362 361 361 358 357 358 358 356 357 358 361 361 359 360 361 360 362 360 359 357 354 352 362 373 369 365 361 361 365 365 361 361 360 359 359 357 356 346 342 334 333 331 328 327 326 325 325 323 321 320 319 319 318 319 320 321
360 356 353 354 356 358 363 364 373 361 350 346 346 343 343 345 344 346 358 363 363 362 359 358 359 358 358 360 363 361 361 363 362 362 361 360 358 357 354 354 353 364 368 363 357 355 362 361 358 357 357 358 359 356 346 338 337 335 332 331 329 328 327 326 327 327 325 322 321 322 321 320 321 320
361 362 358 353 353 353 368 369 366 372 370 345 339 342 342 342 340 336 335 337 355 361 362 361 360 361 362 362 363 366 366 367 361 362 360 360 358 358 355 355 355 362 367 361 356 352 356 358 355 353 356 357 357 354 344 339 338 335 332 331 331 329 328 327 327 326 325 324 322 321 320 319 319 319
361 363 364 361 358 358 364 369 368 370 372 373 364 359 359 361 357 341 333 332 331 340 355 358 358 363 367 364 367 369 370 364 360 358 356 359 356 355 355 358 358 361 362 356 353 350 352 356 353 351 354 354 355 357 346 333 331 331 329 329 328 328 327 327 326 326 325 324 322 320 318 317 317 317
365 366 365 366 364 366 365 364 367 370 371 371 370 371 368 367 367 368 364 358 358 356 355 358 360 363 366 367 368 370 370 368 366 364 361 358 356 356 357 356 357 357 360 359 355 347 350 353 350 349 348 347 347 348 338 334 332 330 328 328 327 326 326 326 326 325 324 323 321 319 318 316 315 314
369 369 369 370 368 368 369 365 354 361 372 370 369 368 368 368 367 368 367 352 353 366 367 366 365 366 373 358 376 374 367 366 365 362 360 356 355 352 350 349 350 348 351 352 350 345 345 348 341 341 344 345 345 346 346 335 331 328 326 326 326 324 322 322 323 323 323 323 322 319 317 314 313 312
366 368 370 370 369 369 370 359 341 339 356 368 366 365 365 365 364 363 367 347 336 338 337 338 345 337 334 331 328 326 326 345 351 356 351 347 349 346 343 344 345 346 348 351 351 343 340 343 341 338 340 342 341 343 346 349 335 329 328 327 326 324 321 320 319 320 321 321 321 320 319 314 312 313
367 369 369 372 370 370 370 349 337 334 352 367 365 363 361 361 362 364 364 370 365 331 335 337 336 333 334 334 329 326 323 323 334 352 347 348 343 343 345 342 345 346 349 349 344 341 336 338 340 340 342 344 346 345 347 348 345 336 333 330 328 327 325 321 318 318 319 319 319 319 316 314 313 321
366 367 367 367 363 366 363 342 334 331 350 367 366 365 363 360 361 363 369 372 370 369 363 362 360 358 343 350 360 362 337 331 338 350 351 350 348 346 347 347 344 338 338 343 349 341 339 339 341 341 338 336 341 345 346 345 346 346 345 345 345 329 327 325 319 316 315 316 317 318 315 313 314 327
366 366 368 365 339 335 335 334 328 324 328 363 367 366 363 362 361 367 369 370 374 375 371 371 371 370 366 364 365 364 364 361 355 353 353 352 353 350 347 341 335 332 333 343 347 343 341 342 339 342 339 335 332 339 342 342 342 342 343 344 342 334 334 333 328 318 314 314 314 315 314 311 314 328
363 365 365 367 344 330 329 327 323 317 317 333 366 366 365 366 370 358 370 372 367 371 369 367 365 364 362 362 359 355 356 353 356 356 354 356 352 344 338 334 334 334 337 346 340 345 339 340 338 339 338 338 336 335 338 338 340 340 342 340 339 340 342 341 338 346 325 313 312 311 311 311 311 323
363 364 366 369 350 328 328 326 323 319 319 318 352 367 339 337 333 365 364 367 367 366 366 362 359 359 357 355 350 345 344 344 350 345 346 346 346 344 341 340 340 339 342 350 335 343 339 337 337 335 336 334 333 334 332 333 337 338 339 339 339 339 341 340 341 344 346 348 350 331 326 312 312 314
364 368 367 368 350 324 323 322 322 322 320 323 342 330 330 330 330 348 360 361 361 362 361 358 357 355 354 348 344 346 347 345 346 342 344 346 347 350 349 348 347 344 343 344 345 344 342 338 340 337 333 333 331 331 331 329 331 337 336 337 339 340 342 342 342 342 344 345 346 330 319 312 312 314
363 367 367 364 327 315 314 316 319 319 321 337 326 322 324 326 337 353 357 357 359 358 356 356 353 353 348 349 347 346 346 342 345 346 349 351 348 347 347 348 344 345 344 343 344 343 344 340 338 340 338 333 330 328 328 332 334 334 334 337 338 339 341 342 342 342 344 346 346 348 346 333 324 319
361 326 314 319 313 315 314 315 317 318 318 314 316 318 320 335 350 355 357 358 360 358 355 352 350 349 352 349 348 348 346 346 349 349 345 344 346 347 347 345 345 345 343 341 342 342 342 340 339 340 340 336 332 333 332 332 333 334 336 335 335 337 338 343 344 344 344 345 344 344 346 344 333 327
315 313 312 311 314 318 322 337 347 352 354 326 321 323 329 349 354 357 359 360 358 355 353 348 345 346 345 344 346 344 347 347 344 343 342 341 341 341 340 338 341 343 342 341 339 340 341 342 342 341 337 337 335 333 333 332 331 335 335 332 330 332 334 334 335 338 338 339 341 344 346 348 341 331
347 336 345 345 333 334 330 341 341 342 333 341 342 345 348 354 358 361 359 355 355 352 349 345 344 343 343 343 347 347 345 343 344 343 341 339 337 338 338 338 338 337 339 340 338 340 341 341 342 340 336 335 334 334 334 334 331 332 331 331 329 325 329 331 332 333 335 338 340 342 348 348 344 333
358 353 333 335 352 352 353 355 357 355 355 353 352 356 356 357 358 349 345 347 352 351 349 347 346 342 346 342 344 343 339 338 338 342 339 337 337 336 338 337 335 333 334 336 337 342 344 342 341 341 339 337 332 333 334 333 330 330 329 328 327 326 325 324 325 328 333 336 337 341 344 345 344 337
357 356 353 355 356 354 354 353 354 354 352 353 353 355 356 357 356 347 342 342 346 346 342 340 341 337 341 343 341 338 336 342 338 341 338 339 338 339 338 333 332 330 329 332 334 337 340 340 343 342 340 338 336 337 333 328 329 328 326 324 323 321 322 323 323 324 327 329 333 338 341 343 344 342
355 354 352 353 352 351 352 351 349 349 349 349 349 351 342 350 345 342 341 342 341 344 342 339 337 341 342 339 340 335 333 339 337 339 332 338 339 337 333 331 332 331 331 331 331 332 336 340 340 340 339 339 337 334 333 328 326 326 324 322 320 318 319 321 321 323 325 327 331 335 337 340 342 340
352 352 350 351 351 351 350 349 348 349 348 347 346 348 344 343 341 338 340 338 339 333 334 334 335 337 335 335 335 332 332 333 334 336 338 336 338 333 331 330 330 331 330 330 331 335 332 334 334 329 332 332 332 334 324 329 326 323 323 320 319 317 317 319 320 321 324 329 333 333 334 336 338 335
352 353 351 351 351 349 347 347 347 348 349 346 346 345 339 338 337 334 334 335 333 333 334 333 335 335 334 333 332 331 331 330 332 333 333 334 333 332 331 330 329 330 330 331 331 332 331 331 327 324 322 323 322 321 324 320 324 324 320 318 318 317 317 318 320 323 326 323 323 323 323 327 332 336
353 354 352 352 352 350 348 348 348 348 346 342 340 338 337 333 331 332 336 340 337 341 337 335 333 333 333 331 333 328 328 329 331 332 332 332 333 332 330 329 329 331 330 332 332 331 332 329 326 323 322 321 319 318 320 328 317 318 323 318 318 317 317 317 317 319 322 322 320 319 319 322 325 326
355 355 351 351 352 351 348 347 343 341 339 338 338 335 332 332 333 336 339 341 337 335 333 333 333 332 331 330 330 329 332 332 331 330 330 331 330 331 329 329 329 329 330 332 331 331 330 328 326 323 322 320 318 317 317 321 324 319 312 320 317 318 317 316 315 315 318 321 320 320 320 319 318 319
357 356 352 351 348 348 345 342 340 339 338 336 335 335 333 335 336 340 338 334 335 335 335 335 334 334 332 331 330 330 331 331 331 330 331 331 331 331 329 328 328 328 328 328 329 329 330 327 326 325 323 321 319 319 320 319 318 321 316 308 317 317 316 316 315 316 317 317 319 321 322 323 321 318
343 343 344 344 346 346 343 343 341 338 334 335 337 335 337 339 338 338 334 332 333 335 334 330 331 329 331 333 332 331 330 332 330 329 331 330 329 329 328 327 326 326 328 327 326 326 327 325 327 326 324 324 325 326 325 324 324 324 324 316 306 313 316 317 315 315 316 317 319 318 318 320 318 320
339 338 338 339 338 341 340 339 340 338 338 340 341 334 339 338 337 340 340 337 337 339 334 333 334 333 332 332 333 330 330 329 330 330 329 329 326 330 325 323 327 327 325 325 325 325 326 327 334 324 332 332 330 330 324 319 317 319 319 319 305 307 308 311 316 314 313 314 316 317 317 316 315 316
337 335 336 338 339 338 338 338 338 339 340 341 340 338 338 336 331 327 332 335 338 337 334 334 333 330 331 334 333 329 330 327 329 328 329 327 328 328 328 326 326 326 325 324 324 325 330 335 334 336 331 328 325 320 317 317 316 317 320 320 321 309 308 308 307 309 312 311 311 312 314 317 319 315
336 335 335 336 338 338 339 338 338 336 335 341 342 340 340 339 336 334 333 334 336 335 334 333 334 332 330 332 332 333 330 329 329 328 328 327 327 326 326 326 326 326 325 325 326 328 328 332 337 328 326 325 323 320 318 318 318 318 319 318 318 320 323 311 310 309 310 308 308 309 312 313 314 312
336 335 334 333 334 335 335 337 338 334 335 333 334 339 339 335 332 331 332 329 330 330 330 330 331 331 332 332 332 333 331 329 329 330 328 327 327 327 326 327 325 326 325 325 325 325 326 326 328 329 323 322 323 320 318 319 317 317 317 318 320 319 317 318 321 317 314 312 308 308 309 309 308 310
331 331 331 331 331 335 337 338 339 338 340 339 335 334 333 330 328 327 329 332 331 329 330 330 330 332 331 331 330 328 329 325 326 327 328 328 327 327 327 326 325 325 325 325 323 325 327 326 325 328 328 324 325 322 321 319 318 318 318 318 317 316 317 317 316 315 315 314 309 308 308 309 309 307
Wind_Speed
5 6 6 4 3 3 3 3 3 1 1 2 1 2 3 2 3 3 3 3 4 4 6 3 6 5 6 5 6 6 7 8 7 7 8 8 8 11 17 18 17 18 18 18 19 19 20 20 20 21 20 20 20 20 20 20 20 20 20 19 19 19 19 18 17 17 17 17 17 16 15 15 16 15
5 5 5 5 5 4 4 5 4 2 3 4 4 3 3 3 4 3 4 4 4 4 4 6 2 4 4 5 6 6 7 8 8 8 8 9 9 12 14 17 17 18 19 19 19 20 20 20 20 21 21 21 21 22 22 21 21 21 21 21 20 20 20 19 19 18 18 18 18 18 16 17 16 16
5 5 5 5 5 4 5 5 5 4 4 4 4 4 3 4 4 4 4 5 4 4 5 5 7 3 5 6 6 7 7 9 11 10 9 9 12 12 9 13 16 18 19 20 20 20 21 21 21 20 20 20 21 21 22 22 22 22 22 21 21 22 21 21 20 20 20 19 20 19 18 17 17 17
5 6 6 6 5 4 4 5 5 4 4 4 5 5 5 5 5 5 5 6 7 6 7 7 7 9 8 7 9 8 8 8 8 7 8 9 9 8 10 15 17 18 18 19 19 19 20 20 20 20 20 20 20 21 22 22 22 22 22 22 22 23 22 21 21 21 21 21 20 20 20 19 19 18
7 6 6 6 6 6 6 5 6 6 5 5 5 6 6 6 6 6 6 7 8 6 6 7 7 8 8 9 8 9 10 9 6 8 9 10 10 10 10 10 13 17 19 19 20 20 20 20 20 21 21 21 21 22 22 22 22 22 22 22 22 23 23 22 22 22 21 21 21 21 20 20 19 18
7 6 7 7 7 7 7 7 7 7 7 6 7 6 7 6 6 6 6 7 7 8 6 7 7 8 8 9 8 9 10 10 7 8 8 7 8 9 9 9 10 13 17 19 20 20 21 20 20 21 22 22 22 22 23 23 22 22 22 23 23 23 23 23 23 23 22 22 22 22 21 21 20 19
8 8 8 8 8 7 8 8 8 8 7 7 6 6 6 7 6 6 7 7 8 9 8 7 8 7 7 8 7 8 8 6 6 8 10 10 9 8 10 10 10 12 12 16 18 19 19 19 19 20 21 21 21 22 22 23 23 23 23 23 24 24 24 24 24 23 23 23 23 23 22 21 21 20
9 9 9 9 9 8 8 7 7 7 7 7 6 7 6 6 7 6 7 7 8 8 9 7 7 7 8 9 9 9 7 8 8 9 8 9 9 10 10 11 11 11 13 11 14 16 17 18 19 19 20 20 20 21 22 22 22 22 23 24 24 25 25 24 24 24 23 23 23 24 24 23 22 21
9 10 10 9 9 9 8 8 8 8 8 7 7 7 6 6 6 6 7 7 8 8 9 9 7 7 8 9 9 8 7 8 8 9 9 10 9 9 11 11 10 12 15 17 17 16 17 17 19 20 20 20 21 21 21 21 21 22 23 23 24 24 24 23 23 23 23 23 24 24 24 24 23 22
10 10 10 10 10 9 9 9 8 8 9 8 8 8 7 6 6 7 8 8 8 8 9 9 10 8 9 8 7 7 7 9 9 9 8 8 8 7 8 10 10 9 9 8 7 7 11 15 20 21 20 21 22 22 22 21 21 22 22 22 22 22 22 22 22 22 23 23 24 24 24 24 23 23
11 11 11 10 11 10 10 10 9 8 9 8 9 8 8 7 7 8 8 8 8 9 9 10 10 10 8 8 9 6 6 7 7 8 8 8 8 7 8 9 10 11 11 11 10 12 14 16 12 15 21 23 24 24 23 22 22 22 22 22 22 23 23 22 22 22 22 23 23 24 24 24 24 24
12 12 12 12 12 12 11 10 10 9 8 8 9 8 7 7 7 8 8 7 7 8 9 10 9 8 8 7 7 6 5 6 6 6 8 10 10 9 7 9 10 9 9 9 11 10 10 11 14 18 18 21 22 22 20 22 22 23 22 21 22 22 22 22 22 22 22 22 23 23 24 24 24 23
11 11 11 12 12 10 11 12 10 9 6 7 7 7 7 7 7 7 7 7 8 8 9 10 9 10 9 8 7 6 4 6 7 5 6 9 10 11 11 8 8 10 11 11 11 11 11 13 11 11 10 10 13 16 21 18 22 23 22 22 21 22 21 21 22 22 22 22 23 23 23 24 23 23
12 12 12 11 13 12 12 13 13 12 9 7 8 6 6 7 8 8 8 8 8 8 9 9 9 10 10 9 7 5 6 7 6 7 6 9 10 11 12 9 7 5 8 11 10 9 10 12 12 11 11 11 11 12 9 7 12 16 21 22 22 22 21 21 22 21 21 22 22 23 23 23 23 23
11 11 11 11 11 10 9 10 14 14 14 13 12 11 9 7 7 7 9 9 9 9 9 9 10 10 11 10 9 8 9 7 6 7 7 8 9 10 12 13 8 4 7 8 11 12 10 10 12 11 11 12 13 13 12 15 14 15 17 18 20 21 22 21 21 21 21 21 22 22 22 22 23 23
10 11 11 11 10 10 11 10 10 12 14 14 14 14 12 13 15 14 10 8 9 9 10 10 10 10 10 9 8 9 8 5 6 8 9 9 10 12 12 11 12 8 8 10 13 14 9 9 10 11 10 11 12 14 15 17 16 16 15 16 18 19 20 21 21 21 20 20 21 21 22 22 23 23
10 10 10 10 10 10 12 11 12 10 11 14 16 15 15 15 16 16 17 15 12 9 10 10 11 10 9 9 8 8 7 6 9 8 7 7 9 10 11 11 13 11 9 10 12 13 10 8 9 10 9 10 11 13 15 17 19 18 16 15 16 18 19 20 20 20 20 20 19 20 21 21 22 22
11 11 10 10 10 10 8 8 10 10 10 9 11 11 10 11 14 16 18 18 18 14 12 12 13 11 8 9 9 8 8 10 11 10 10 8 10 11 11 12 13 13 10 11 11 13 11 9 10 10 10 10 10 10 13 16 16 18 17 14 15 16 18 20 20 20 20 19 18 18 20 20 21 21
11 11 11 11 10 9 10 10 10 10 9 9 8 10 11 12 12 12 13 13 11 10 10 12 14 13 12 11 10 9 7 9 10 9 10 11 12 11 11 11 12 12 10 10 9 12 10 9 10 10 11 11 12 12 12 15 16 17 18 19 15 14 17 19 19 20 20 19 17 18 19 19 20 20
10 10 10 10 11 10 11 11 12 10 8 9 9 10 10 10 11 11 12 15 14 12 10 11 12 12 9 4 7 6 7 8 9 10 9 11 10 10 9 8 7 7 7 8 8 10 10 9 12 13 11 12 12 11 13 15 17 16 13 13 14 12 14 16 17 18 19 18 17 17 17 17 19 19
11 11 11 11 10 12 12 12 12 12 9 10 10 9 10 10 10 10 9 13 19 19 16 15 16 3 2 4 6 8 7 5 5 7 10 10 9 8 9 9 7 6 7 9 7 8 10 9 10 13 12 11 12 12 11 10 12 14 14 15 15 13 11 12 14 16 17 17 16 14 15 16 17 19
10 12 14 13 13 12 12 13 14 12 10 10 11 11 11 11 11 11 10 6 6 15 18 14 4 3 6 7 8 9 11 9 4 6 8 8 7 8 8 9 10 10 8 6 9 9 9 11 10 11 12 11 9 10 10 10 11 14 15 17 17 15 12 12 11 12 14 14 14 14 14 15 12 7
11 11 12 15 14 13 13 13 12 13 11 11 11 11 10 11 12 11 8 7 7 5 5 5 6 5 7 6 6 7 11 11 7 8 9 7 6 7 8 9 10 11 7 6 10 8 11 12 12 11 12 12 10 8 10 11 11 12 12 13 13 14 14 11 10 10 11 12 14 15 13 11 9 7
11 11 11 12 17 17 15 12 10 12 14 12 12 10 11 10 11 8 9 6 3 5 6 5 5 5 3 6 7 8 8 8 9 9 9 7 6 7 7 8 9 10 9 6 14 10 11 10 11 10 10 12 12 11 11 10 12 12 12 12 12 14 16 12 7 11 12 11 13 14 13 8 11 7
11 11 12 11 15 20 19 17 15 12 13 13 11 12 11 9 3 6 4 1 1 4 5 6 6 8 8 6 7 7 7 7 7 9 8 8 4 5 7 9 10 10 9 6 12 9 8 10 11 10 10 10 12 13 11 11 11 11 11 12 13 13 12 13 12 11 7 12 13 14 11 10 15 12
11 11 10 10 12 20 20 20 18 17 14 14 9 12 12 7 7 5 5 6 6 7 6 5 5 6 7 6 5 4 4 4 4 4 3 5 7 6 6 7 8 10 10 9 11 9 9 9 10 11 11 11 13 12 14 12 10 11 12 13 14 14 13 14 13 11 11 9 7 6 9 13 17 19
11 10 10 10 12 18 20 20 20 18 16 10 10 13 10 7 5 4 7 7 7 7 5 4 5 6 6 5 4 3 2 3 6 5 5 6 6 6 6 6 6 8 9 10 9 8 7 9 9 10 12 12 13 13 13 14 14 12 12 13 14 14 12 12 11 12 12 10 10 11 8 12 16 18
11 11 11 9 12 16 18 19 17 16 14 10 12 10 10 8 4 4 7 7 7 6 5 5 6 6 4 3 2 3 4 5 5 5 5 5 5 5 5 5 6 6 8 8 7 7 7 8 9 9 12 13 14 14 16 15 15 14 13 10 11 13 14 13 14 11 9 9 9 9 2 4 6 7
2 6 9 7 12 15 17 17 13 9 8 10 11 8 5 3 5 6 6 6 6 6 4 5 5 4 2 1 1 2 3 4 5 4 4 4 5 4 4 5 5 6 5 5 6 7 7 7 9 9 10 10 12 12 12 13 13 13 10 12 11 13 14 12 12 10 10 12 14 12 11 4 5 7
9 8 11 10 9 7 6 5 5 6 5 8 7 5 4 5 6 7 7 7 5 5 5 5 3 2 1 0 3 2 2 3 3 3 4 4 4 4 5 6 5 4 4 5 6 7 8 8 8 9 10 9 10 11 11 13 13 12 11 11 13 12 8 12 13 12 12 13 13 12 11 4 5 7
4 3 2 4 4 6 6 2 5 5 7 4 4 5 6 7 6 7 6 5 6 4 3 3 3 1 2 3 1 3 3 4 1 2 3 4 4 5 4 5 5 5 5 6 7 7 8 8 8 9 9 10 10 10 11 12 13 12 12 12 13 14 14 13 11 11 11 11 11 10 9 6 4 7
7 6 6 6 5 5 5 5 4 5 4 5 5 6 7 7 7 3 8 4 2 3 5 2 2 2 1 3 3 2 4 1 2 1 3 4 4 5 5 5 5 6 6 7 7 7 6 7 8 8 8 8 10 10 10 10 11 13 13 14 14 14 14 15 15 14 14 14 11 9 9 8 6 5
10 7 7 8 8 8 9 10 11 9 7 8 8 8 8 8 7 5 6 5 5 4 4 3 3 3 4 3 2 3 2 1 2 1 2 2 3 4 4 5 6 7 8 8 8 7 7 8 9 9 9 8 9 8 8 10 11 11 13 14 13 14 14 15 15 16 16 14 12 12 11 9 7 3
11 10 8 11 13 12 12 12 12 11 9 9 9 9 9 7 6 7 6 5 5 1 1 1 2 0 2 3 3 2 2 1 1 1 1 2 3 4 5 6 6 7 7 8 8 8 8 7 8 7 8 8 6 9 8 7 9 9 10 12 13 14 14 15 15 17 14 12 12 12 10 9 4 2
13 12 13 13 10 10 12 12 12 12 11 11 10 9 7 6 5 4 5 5 3 3 2 2 2 2 2 3 2 2 1 1 2 2 2 2 3 4 5 6 6 7 7 8 8 8 8 8 8 9 8 8 5 6 10 9 7 8 9 11 14 15 16 14 15 15 14 13 12 12 11 10 6 2
12 13 13 13 13 12 13 12 11 12 12 10 11 8 7 6 5 5 4 4 3 3 1 1 3 3 3 3 3 2 0 2 3 3 3 3 4 4 5 5 6 7 7 7 8 7 8 8 9 10 10 9 9 9 5 9 11 7 10 12 14 16 16 16 15 13 11 12 10 10 11 11 11 4
12 13 13 12 12 11 11 11 11 11 10 9 7 6 5 5 4 3 2 3 1 2 1 5 4 2 4 4 3 2 2 2 3 3 3 4 3 4 5 5 6 6 7 7 7 7 7 8 8 10 11 10 11 10 10 5 8 8 8 9 10 11 15 14 13 13 11 10 9 10 10 9 8 9
10 11 13 11 8 7 8 7 5 5 6 6 5 4 5 5 3 4 2 3 3 3 5 5 5 5 4 3 4 3 2 2 2 4 4 4 4 3 4 6 6 6 7 7 6 6 6 8 8 9 10 11 11 12 12 11 8 6 10 8 8 10 10 12 13 11 11 9 9 8 7 8 8 7
7 7 7 7 7 6 6 7 8 9 7 6 5 5 6 8 7 6 3 5 6 6 5 5 5 3 5 5 3 2 2 3 4 4 4 4 4 4 4 5 6 6 7 7 7 7 6 6 8 7 7 8 10 11 11 12 11 9 6 9 5 7 9 10 11 10 9 10 10 7 5 4 4 6
2 3 3 5 5 6 7 8 10 9 8 8 9 8 5 8 6 6 6 6 5 6 6 6 6 4 3 3 3 4 5 5 5 5 5 4 4 4 4 4 6 7 7 7 8 8 8 7 6 4 5 5 6 6 9 9 8 8 3 6 8 8 6 7 9 11 10 9 9 8 8 8 7 7
4 4 4 4 6 6 7 7 6 6 7 5 5 6 6 6 5 4 2 1 3 3 4 5 3 3 4 5 5 5 5 4 4 4 4 4 4 5 3 4 7 7 7 8 8 8 6 4 1 8 7 5 5 6 8 9 11 10 12 4 7 11 10 7 7 9 8 11 10 10 9 8 7 5
5 5 5 6 6 7 7 7 5 5 5 6 7 7 7 6 4 4 3 3 3 5 6 4 4 4 6 5 5 5 5 5 4 4 4 5 5 5 5 6 6 6 7 7 8 8 6 3 4 7 2 5 7 8 10 10 11 11 8 9 5 10 11 11 13 13 11 10 10 10 8 6 5 4
5 5 5 4 4 4 5 6 5 6 6 5 4 5 6 6 4 4 5 5 5 5 6 5 5 6 6 6 6 5 5 5 5 6 5 6 7 7 7 7 7 7 8 8 8 7 7 5 4 2 2 6 7 6 9 9 9 9 9 10 10 10 3 9 11 17 18 20 17 11 7 6 8 6
5 6 7 6 6 7 7 6 4 5 6 6 4 3 4 6 7 7 7 5 6 5 5 6 7 7 7 6 5 4 4 7 7 5 5 7 7 7 7 6 6 7 8 8 9 8 6 7 7 4 3 6 6 7 8 9 9 10 10 9 8 8 10 8 2 6 11 16 21 19 16 13 11 9
8 8 8 7 7 7 6 5 4 4 3 3 5 6 6 6 6 6 6 6 6 5 5 5 5 6 6 5 5 6 6 3 4 5 6 8 8 7 7 8 8 7 7 7 9 8 6 6 8 7 3 4 4 4 6 7 8 8 7 9 9 8 8 9 9 10 8 8 15 19 16 15 18 19
Wind_Direction
235 218 215 223 235 257 268 285 274 285 335 288 266 258 266 263 270 275 296 299 302 330 317 325 166 201 179 203 228 229 226 239 219 215 229 240 249 219 211 217 220 223 225 228 230 231 232 232 232 232 233 233 233 232 233 234 235 235 236 237 238 238 237 235 232 231 229 228 227 223 218 221 226 232
242 255 232 200 230 221 230 221 243 208 187 222 226 230 233 214 239 267 274 278 288 281 270 274 152 197 210 210 227 246 249 242 232 246 250 249 250 243 215 216 221 225 227 229 230 231 232 233 234 233 233 232 232 233 233 233 234 235 235 235 235 235 235 235 233 231 228 226 226 224 218 220 223 227
246 239 249 242 233 230 239 256 240 196 194 216 239 240 227 222 228 248 256 274 260 281 290 294 298 278 207 249 263 253 242 229 218 236 245 247 251 260 250 224 224 226 228 230 231 232 233 234 235 236 236 235 234 234 234 235 235 235 235 235 234 235 235 235 234 232 231 229 227 226 224 221 222 223
235 235 236 238 242 240 247 249 254 246 210 220 230 225 224 225 230 233 247 254 269 271 281 290 287 274 275 262 254 249 250 253 230 239 246 246 247 253 256 243 225 228 230 235 236 238 239 239 241 241 241 240 240 240 239 237 238 237 237 237 236 236 236 234 233 231 231 230 228 227 225 225 224 221
230 231 237 238 233 235 240 240 249 245 225 214 232 241 240 236 228 224 233 256 268 269 266 274 278 284 289 282 276 278 274 270 255 229 228 237 246 253 254 258 239 224 229 232 235 237 238 239 240 241 241 242 242 242 242 241 240 241 240 240 238 237 236 235 232 231 230 230 230 227 226 225 224 221
240 230 229 235 237 230 234 244 244 246 246 224 222 227 234 244 241 225 241 249 268 275 279 270 270 275 269 271 263 262 265 266 264 269 269 262 249 249 255 257 264 232 223 229 234 236 238 240 241 241 242 243 244 243 243 243 243 242 241 241 240 239 238 236 233 231 229 229 229 228 226 224 223 221
225 233 232 232 232 231 228 228 241 251 251 254 254 241 235 235 239 239 229 245 258 270 275 280 279 270 268 270 278 275 273 279 280 277 274 273 272 272 275 279 279 269 234 225 232 236 240 242 243 244 246 247 247 246 245 243 243 241 240 238 238 238 237 236 235 233 230 228 228 228 226 224 222 221
226 228 229 236 234 229 230 230 235 238 244 244 241 254 255 256 260 263 260 240 247 262 272 270 272 279 281 278 276 279 284 291 292 290 294 290 288 291 292 287 283 280 283 254 230 236 238 240 244 246 247 248 248 247 246 246 244 243 243 242 239 238 236 235 234 233 232 230 229 228 227 224 221 220
225 228 232 232 231 232 232 229 230 234 237 238 245 240 237 240 244 248 249 253 252 256 262 271 268 269 267 268 273 277 282 284 285 289 290 295 294 293 296 293 284 282 267 256 244 233 233 236 241 246 248 247 248 249 248 246 245 245 246 245 245 244 242 240 236 234 232 231 230 229 228 225 221 218
224 231 230 232 234 231 229 231 230 233 237 237 236 241 245 245 242 243 246 251 253 257 266 270 273 264 266 269 263 269 274 287 296 297 297 294 289 285 285 292 294 296 300 304 283 239 234 239 242 248 247 245 246 248 250 248 246 245 245 245 247 247 247 245 242 238 234 232 231 230 229 227 222 218
220 226 230 231 231 234 232 232 233 230 231 237 243 240 244 242 243 244 248 251 251 258 263 264 264 273 269 266 275 262 280 291 285 285 290 287 290 289 295 297 296 297 299 297 284 270 270 274 267 240 238 242 242 242 242 243 245 246 243 243 243 243 242 241 240 239 237 235 233 231 229 228 225 220
226 224 227 230 228 229 230 228 231 235 236 235 240 242 239 242 241 249 254 256 260 262 265 267 276 277 283 280 276 284 274 274 267 266 293 301 302 298 284 278 277 290 297 291 295 287 267 245 248 254 253 248 249 247 245 244 244 244 246 241 242 244 243 243 241 238 236 234 234 233 232 230 226 222
228 234 234 233 234 222 211 217 222 234 242 239 238 239 240 241 240 245 247 250 253 259 263 270 272 273 271 272 276 273 259 274 296 316 298 295 299 302 303 299 296 293 292 296 299 301 305 301 295 299 301 287 263 244 235 242 238 240 242 240 241 243 243 242 241 238 236 234 233 232 232 231 229 225
222 228 238 243 235 228 211 198 200 212 227 246 256 254 240 235 240 242 247 249 249 253 259 263 269 272 273 278 277 278 290 292 306 314 315 306 308 306 301 297 292 290 293 303 300 294 296 298 301 295 288 286 276 288 270 227 226 235 232 237 238 240 242 241 241 238 235 233 233 233 233 231 229 227
227 228 230 241 249 237 214 199 195 199 208 219 233 250 262 277 272 261 252 248 247 249 256 261 263 266 274 279 290 296 301 315 327 311 308 305 305 303 307 307 306 289 322 311 301 294 292 293 287 284 281 282 286 289 282 281 254 234 236 232 231 234 238 241 241 238 234 232 231 231 231 230 229 227
223 230 233 233 236 235 232 228 200 197 204 214 225 231 237 245 252 251 255 264 263 253 258 261 263 271 275 287 293 300 319 341 316 302 300 295 298 301 300 299 298 309 312 304 296 288 287 282 279 277 275 279 284 285 290 286 280 272 250 237 233 232 234 238 240 240 236 232 230 229 229 229 228 226
219 222 230 238 239 244 219 212 223 212 199 210 218 223 229 237 239 245 248 245 246 266 268 269 270 267 284 291 294 311 314 321 304 298 292 295 294 294 293 292 296 302 310 296 281 282 292 292 283 283 281 288 288 288 287 286 286 282 270 254 242 237 237 238 239 240 240 235 230 227 228 227 226 225
220 220 223 226 234 238 239 229 223 223 222 199 206 221 225 232 235 235 239 244 243 239 248 256 264 270 276 279 286 296 301 300 301 299 296 301 299 294 290 295 290 287 285 275 287 290 291 295 298 295 298 298 293 290 299 301 300 299 298 281 260 250 244 242 241 241 242 240 231 227 227 226 224 224
221 220 221 227 231 233 235 236 228 225 223 221 216 210 218 223 234 229 228 226 223 223 224 236 249 259 261 264 274 281 276 277 289 303 311 312 298 292 286 277 268 274 270 262 267 283 298 302 297 300 308 309 304 304 295 288 292 295 293 293 283 259 252 248 245 244 245 244 234 227 227 224 222 222
222 223 222 222 228 231 235 234 226 225 227 229 225 229 235 238 237 237 227 212 204 211 212 222 232 241 253 258 271 300 310 305 302 304 307 299 291 285 280 278 287 287 300 304 292 288 302 318 311 309 310 307 303 304 301 294 285 284 295 305 303 285 261 256 254 254 254 251 243 233 228 224 221 221
225 223 223 225 226 227 232 233 224 217 211 232 239 243 248 249 253 252 249 210 198 202 209 213 224 205 207 314 319 310 307 283 314 307 298 285 283 290 300 304 306 307 317 300 307 326 310 311 313 310 311 313 308 303 308 317 325 340 329 318 320 318 291 264 258 260 261 261 257 248 234 227 223 221
225 224 220 221 226 229 231 228 221 210 195 227 236 241 244 245 247 251 255 264 196 200 205 216 211 260 262 253 261 264 262 250 205 254 258 270 293 297 300 305 311 310 307 317 1 324 311 321 320 314 313 309 308 317 317 330 330 328 329 332 330 336 332 307 280 260 261 263 264 256 243 234 223 214
225 226 219 216 221 227 233 231 218 207 199 228 231 236 239 241 245 248 254 248 249 204 184 210 199 225 236 236 236 248 241 246 209 221 236 260 283 293 302 304 310 313 315 11 26 337 323 330 325 329 323 315 317 323 332 327 333 334 329 322 318 319 326 318 298 280 267 260 259 257 249 233 178 205
222 223 226 211 210 223 232 238 220 212 206 220 231 234 238 240 243 249 248 256 289 280 246 239 220 244 270 254 246 243 241 229 206 213 224 241 260 294 310 311 308 300 307 359 19 347 322 325 319 330 323 320 319 327 323 330 330 326 324 323 327 335 334 319 272 245 251 250 250 258 254 206 182 200
223 221 221 230 198 207 218 228 226 214 215 220 229 233 240 242 44 20 313 307 271 288 290 296 298 282 278 268 254 241 231 237 214 204 225 238 289 341 314 306 304 298 310 352 25 335 324 326 317 325 321 315 307 313 323 322 325 324 335 333 325 323 322 320 315 310 226 226 244 247 245 193 191 202
229 228 219 229 198 194 207 217 224 225 220 220 228 236 243 271 15 328 332 307 294 270 272 270 272 270 272 271 273 293 299 288 351 20 1 347 336 313 305 301 304 302 312 344 3 332 324 319 324 321 319 319 317 319 318 321 323 335 331 326 325 323 319 317 317 309 313 315 303 227 215 194 197 205
228 227 231 230 187 188 201 210 218 223 227 226 235 245 265 284 337 317 276 281 276 276 288 308 288 281 269 256 261 267 315 2 30 348 330 312 300 289 283 298 299 305 311 317 321 319 314 310 317 318 322 323 317 318 319 322 324 326 319 319 318 317 314 313 307 306 305 303 299 288 219 190 199 206
227 234 231 226 165 186 195 206 213 220 218 225 240 244 249 264 278 271 264 255 252 254 258 245 260 264 267 299 315 13 21 350 345 305 280 273 287 302 309 306 304 300 302 301 311 319 323 315 315 318 321 324 323 322 320 319 317 320 313 310 306 307 313 312 310 310 306 298 299 298 219 190 197 198
268 57 62 110 164 178 189 198 206 216 226 239 259 276 319 290 248 238 237 246 243 234 232 261 248 242 230 141 59 58 358 311 277 274 295 318 305 306 310 312 301 295 291 328 332 337 334 324 317 319 321 325 324 322 320 321 324 323 324 321 332 340 329 322 317 315 315 313 306 305 300 253 186 184
69 75 80 85 101 116 139 147 180 205 192 206 218 241 235 234 235 233 229 218 232 230 230 235 231 243 238 145 64 3 267 269 295 332 325 315 322 336 334 327 317 312 331 341 347 350 340 328 324 328 327 328 330 326 328 326 324 324 341 349 335 321 330 330 326 329 330 325 323 321 309 257 195 165
98 107 96 104 88 87 138 120 105 110 106 139 176 207 210 223 227 226 226 227 219 206 227 204 215 222 61 28 339 255 246 250 279 343 341 329 345 333 340 317 317 339 349 358 353 352 339 336 335 334 329 334 333 330 326 326 324 336 343 344 342 330 327 326 324 319 320 317 314 306 303 280 236 160
202 152 123 130 138 145 167 172 187 202 197 200 207 219 219 219 218 91 62 64 135 165 195 168 86 46 32 254 211 224 246 331 322 358 9 351 333 336 329 320 339 344 347 350 346 347 350 345 335 333 332 333 331 327 326 330 337 343 339 340 336 331 332 333 331 328 326 320 308 304 305 306 286 181
209 171 170 189 196 200 206 218 224 223 218 225 227 225 224 219 203 181 189 191 185 185 195 170 139 206 225 240 203 230 217 126 266 70 17 326 331 318 320 332 349 354 347 343 342 344 349 343 340 334 334 339 327 336 339 340 350 347 340 340 340 334 333 334 331 329 327 319 312 310 311 315 317 184
203 193 192 211 213 213 217 219 220 221 221 218 217 218 211 208 197 184 170 180 165 144 318 174 178 46 352 260 242 246 251 146 283 98 267 303 321 315 336 344 348 351 344 336 338 341 340 344 337 336 336 330 21 54 13 13 353 348 345 343 343 336 334 334 331 326 320 313 306 306 315 322 351 293
204 199 203 212 210 207 216 216 216 219 219 219 216 208 189 193 193 176 170 158 147 170 204 240 243 198 222 266 260 276 265 330 324 312 311 307 303 335 344 341 341 339 338 331 335 340 343 341 344 345 337 333 337 108 58 23 6 2 349 349 346 339 335 334 329 320 317 323 329 329 330 328 329 209
202 203 202 209 210 206 211 213 215 217 217 215 212 196 177 181 174 167 188 169 171 204 218 317 283 248 234 239 234 247 319 347 300 311 321 325 329 338 337 337 330 332 331 326 330 336 342 344 355 349 338 334 338 328 23 47 44 19 3 348 347 342 339 337 333 330 343 347 345 345 340 333 334 342
200 205 203 211 209 202 206 207 213 213 209 205 194 177 172 176 175 165 144 97 242 339 320 243 240 256 248 245 248 200 264 270 284 292 300 299 316 326 327 331 334 328 321 323 323 330 346 348 1 355 342 338 340 338 345 9 76 67 23 353 342 349 344 341 340 338 343 347 345 349 336 331 343 354
210 203 203 207 203 177 191 195 156 125 151 163 143 140 177 172 173 188 196 185 153 218 219 230 227 220 244 240 246 253 250 262 287 280 277 292 296 302 326 323 319 319 315 312 324 337 344 336 348 354 348 340 338 342 338 344 340 39 60 26 351 345 351 346 344 341 336 342 343 338 338 345 347 347
228 214 177 178 173 165 166 166 163 182 176 148 163 182 189 187 153 103 163 187 198 214 218 215 236 218 231 243 245 278 262 251 259 277 282 286 295 296 307 310 318 315 315 310 317 327 324 322 350 355 351 334 336 338 332 330 342 353 64 45 28 353 358 349 341 334 334 337 339 329 317 291 272 329
103 81 105 118 137 145 155 157 175 180 163 177 190 192 163 98 114 177 173 176 179 203 222 211 219 206 207 255 250 235 234 241 249 256 265 276 290 305 294 320 315 300 300 308 313 321 324 357 5 346 332 312 316 322 315 324 326 345 28 87 60 74 16 358 350 341 339 340 328 332 339 342 349 351
126 111 86 83 101 116 132 145 160 163 165 155 110 82 89 106 94 60 27 140 182 215 233 217 191 188 227 227 229 250 258 244 253 266 274 280 277 272 294 302 273 283 316 312 308 312 334 11 258 204 221 250 291 313 322 342 340 344 353 54 138 102 102 73 36 13 353 339 332 331 338 344 341 355
98 93 95 94 115 130 143 147 138 108 98 107 97 79 74 75 62 78 123 124 159 196 223 212 189 212 232 233 234 234 241 256 262 275 280 283 292 295 262 266 289 306 304 304 307 311 314 305 204 186 261 313 331 340 328 340 337 337 350 358 25 145 126 115 104 76 43 10 354 344 336 330 337 354
107 112 112 115 121 144 156 147 126 137 129 103 102 111 112 118 145 198 202 192 201 201 216 221 210 207 227 219 224 238 257 264 252 246 270 286 278 284 294 293 296 305 306 302 301 302 306 309 289 324 352 313 325 332 326 337 332 328 336 349 356 353 92 133 94 79 54 29 16 1 338 320 311 326
120 92 70 65 68 62 53 45 62 103 117 125 120 113 170 182 188 196 211 198 192 221 224 238 231 227 228 234 232 233 261 259 278 316 307 289 292 293 288 292 290 289 288 291 293 297 303 312 304 317 308 309 316 319 322 324 326 334 338 342 356 357 350 357 358 90 70 42 18 6 6 34 35 26
83 81 78 73 74 68 72 64 58 87 84 124 157 178 189 176 185 189 203 202 195 215 234 249 248 238 241 250 258 262 255 303 350 292 271 272 281 286 287 284 277 262 272 285 292 285 290 305 303 291 263 289 310 329 320 316 317 311 327 333 351 0 338 347 351 359 15 32 25 17 16 33 60 61